Location: Acton
(51.4942°N, 0.2232°W)
Time: 10:49:56
(UTC+00:00)

Okean 1-7 Rocket - Pass Details

Date: 18 January 2021
Orbit: 615 x 650 km, 82.5° (Epoch: 26 February)

Event Time Altitude Azimuth Distance (km) Brightness Sun altitude
Exits shadow 04:16:18 11° 20° (NNE) 2,012 6.5 -33.7°
Maximum altitude 04:19:19 19° 63° (ENE) 1,565 6.2 -33.2°
Drops below altitude 10° 04:22:30 10° 108° (ESE) 2,043 6.9 -32.7°
Sets 04:25:20 0° 127° (SE) 2,941 7.6 -32.3°
